Location: Dallas
(32.7833°N, 96.8000°W)
Time: 21:36:50
(UTC-06:00)

Envisat - Pass Details

Date: 09 December 2021
Orbit: 764 x 766 km, 98.2° (Epoch: 23 January)

Event Time Altitude Azimuth Distance (km) Brightness Sun altitude
Rises 06:29:34 0° 353° (N) 3,235 6.0 -10.2°
Reaches altitude 10° 06:32:30 10° 336° (NNW) 2,305 5.1 -9.6°
Maximum altitude 06:35:57 19° 293° (WNW) 1,771 4.2 -8.9°
Drops below altitude 10° 06:39:24 10° 249° (WSW) 2,295 5.0 -8.3°
Sets 06:42:18 0° 232° (SW) 3,217 5.9 -7.7°
